Time,TemperatureF,DewpointF,PressureIn,WindDirection,WindDirectionDegrees,WindSpeedMPH,WindSpeedGustMPH,Humidity,HourlyPrecipIn,Conditions,Clouds,dailyrainin,SoftwareType,DateUTC
2013-01-14 00:00:00,21.0,7.8,28.91,NW,323,0.0,0.0,56,0.00,,---,0.00,VWS V14.01,2013-01-14 05:00:00,
2013-01-14 00:01:00,21.0,7.8,28.91,North,353,0.0,0.0,56,0.00,,---,0.00,VWS V14.01,2013-01-14 05:01:00,
2013-01-14 00:02:00,21.0,7.8,28.91,North,2,0.0,0.0,56,0.00,,---,0.00,VWS V14.01,2013-01-14 05:02:00,
2013-01-14 00:03:00,21.0,7.8,28.94,North,350,0.0,0.0,56,0.00,,---,0.00,VWS V14.01,2013-01-14 05:03:00,
2013-01-14 00:08:00,21.0,8.2,28.94,WSW,258,0.0,0.0,57,0.00,,---,0.00,VWS V14.01,2013-01-14 05:08:00,
2013-01-14 00:13:00,20.8,8.0,28.94,NNW,336,0.0,0.0,57,0.00,,---,0.00,VWS V14.01,2013-01-14 05:13:00,
2013-01-14 00:18:00,20.8,8.0,28.94,NNW,341,0.0,0.0,57,0.00,,---,0.00,VWS V14.01,2013-01-14 05:18:00,
2013-01-14 00:23:00,20.7,8.2,28.94,North,350,0.0,0.0,58,0.00,,---,0.00,VWS V14.01,2013-01-14 05:23:00,
2013-01-14 00:28:00,20.7,8.6,28.94,WSW,240,0.0,0.0,59,0.00,,---,0.00,VWS V14.01,2013-01-14 05:28:00,
2013-01-14 00:33:00,20.5,8.1,28.94,NW,322,0.0,0.0,58,0.00,,---,0.00,VWS V14.01,2013-01-14 05:33:00,
2013-01-14 00:38:00,20.3,7.9,28.94,NNW,345,0.0,0.0,58,0.00,,---,0.00,VWS V14.01,2013-01-14 05:38:00,
2013-01-14 00:43:00,20.3,7.1,28.94,North,3,0.0,0.0,56,0.00,,---,0.00,VWS V14.01,2013-01-14 05:43:00,
2013-01-14 00:48:00,20.3,7.1,28.94,West,266,0.0,0.0,56,0.00,,---,0.00,VWS V14.01,2013-01-14 05:48:00,
2013-01-14 00:53:00,20.1,6.9,28.94,WSW,256,0.0,0.0,56,0.00,,---,0.00,VWS V14.01,2013-01-14 05:53:00,
2013-01-14 00:58:00,20.1,7.3,28.94,NNW,341,0.0,0.0,57,0.00,,---,0.00,VWS V14.01,2013-01-14 05:58:00,
2013-01-14 01:03:00,19.9,7.2,28.97,NNW,327,0.0,0.0,57,0.00,,---,0.00,VWS V14.01,2013-01-14 06:03:00,
2013-01-14 01:08:00,19.9,6.8,28.97,NNW,339,0.0,0.0,56,0.00,,---,0.00,VWS V14.01,2013-01-14 06:08:00,
2013-01-14 01:13:00,19.8,6.2,28.97,North,357,0.0,0.0,55,0.00,,---,0.00,VWS V14.01,2013-01-14 06:13:00,
2013-01-14 01:18:00,19.8,5.8,28.97,SW,232,0.0,0.0,54,0.00,,---,0.00,VWS V14.01,2013-01-14 06:18:00,
2013-01-14 01:23:00,19.6,6.1,28.97,NNW,335,0.0,0.0,55,0.00,,---,0.00,VWS V14.01,2013-01-14 06:23:00,
2013-01-14 01:28:00,19.6,5.7,28.97,NNW,345,0.0,0.0,54,0.00,,---,0.00,VWS V14.01,2013-01-14 06:28:00,
2013-01-14 01:33:00,19.6,6.1,28.97,North,3,0.0,0.0,55,0.00,,---,0.00,VWS V14.01,2013-01-14 06:33:00,
2013-01-14 01:38:00,19.6,6.4,28.97,NE,42,0.0,0.0,56,0.00,,---,0.00,VWS V14.01,2013-01-14 06:38:00,
2013-01-14 01:43:00,19.6,6.8,28.97,North,4,0.0,0.0,57,0.00,,---,0.00,VWS V14.01,2013-01-14 06:43:00,
2013-01-14 01:48:00,19.4,6.7,28.97,NW,315,0.0,0.0,57,0.00,,---,0.00,VWS V14.01,2013-01-14 06:48:00,
2013-01-14 01:53:00,19.4,7.1,28.97,NNW,337,0.0,0.0,58,0.00,,---,0.00,VWS V14.01,2013-01-14 06:53:00,
2013-01-14 01:58:00,19.4,6.7,28.97,NW,310,0.0,0.0,57,0.00,,---,0.00,VWS V14.01,2013-01-14 06:58:00,
2013-01-14 02:03:00,19.2,6.5,28.97,NNW,343,0.0,0.0,57,0.00,,---,0.00,VWS V14.01,2013-01-14 07:03:00,
2013-01-14 02:08:00,19.2,6.5,28.97,North,11,0.0,0.0,57,0.00,,---,0.00,VWS V14.01,2013-01-14 07:08:00,
2013-01-14 02:13:00,19.2,6.5,28.97,NW,320,0.0,0.0,57,0.00,,---,0.00,VWS V14.01,2013-01-14 07:13:00,
2013-01-14 02:18:00,19.2,6.1,29.00,North,357,0.0,0.0,56,0.00,,---,0.00,VWS V14.01,2013-01-14 07:18:00,
2013-01-14 02:23:00,19.2,6.1,29.00,NW,312,0.0,0.0,56,0.00,,---,0.00,VWS V14.01,2013-01-14 07:23:00,
2013-01-14 02:28:00,19.2,6.1,29.00,North,1,0.0,0.0,56,0.00,,---,0.00,VWS V14.01,2013-01-14 07:28:00,
2013-01-14 02:33:00,19.2,6.1,29.00,WNW,295,0.0,0.0,56,0.00,,---,0.00,VWS V14.01,2013-01-14 07:33:00,
2013-01-14 02:38:00,19.2,6.1,29.00,North,357,0.0,0.0,56,0.00,,---,0.00,VWS V14.01,2013-01-14 07:38:00,
2013-01-14 02:43:00,19.0,6.3,29.00,NE,50,0.0,0.0,57,0.00,,---,0.00,VWS V14.01,2013-01-14 07:43:00,
2013-01-14 02:48:00,19.0,5.9,29.00,NNW,335,0.0,0.0,56,0.00,,---,0.00,VWS V14.01,2013-01-14 07:48:00,
2013-01-14 02:53:00,19.0,6.3,29.00,West,271,0.0,0.0,57,0.00,,---,0.00,VWS V14.01,2013-01-14 07:53:00,
2013-01-14 02:58:00,18.9,6.2,29.00,WNW,288,0.0,0.0,57,0.00,,---,0.00,VWS V14.01,2013-01-14 07:58:00,
2013-01-14 03:03:00,19.0,6.3,29.03,North,350,0.0,0.0,57,0.00,,---,0.00,VWS V14.01,2013-01-14 08:03:00,
2013-01-14 03:09:00,19.0,6.7,29.03,NNW,327,0.0,0.0,58,0.00,,---,0.00,VWS V14.01,2013-01-14 08:09:00,
2013-01-14 03:14:00,18.9,6.5,29.03,NNW,343,0.0,0.0,58,0.00,,---,0.00,VWS V14.01,2013-01-14 08:14:00,
2013-01-14 03:19:00,19.0,6.7,29.03,NNW,337,0.0,0.0,58,0.00,,---,0.00,VWS V14.01,2013-01-14 08:19:00,
2013-01-14 03:24:00,18.9,6.5,29.03,NW,307,0.0,0.0,58,0.00,,---,0.00,VWS V14.01,2013-01-14 08:24:00,
2013-01-14 03:29:00,18.9,6.2,29.03,North,357,0.0,0.0,57,0.00,,---,0.00,VWS V14.01,2013-01-14 08:29:00,
2013-01-14 03:34:00,18.7,5.2,29.03,NNW,339,0.0,0.0,55,0.00,,---,0.00,VWS V14.01,2013-01-14 08:34:00,
2013-01-14 03:39:00,18.9,5.4,29.03,North,1,0.0,0.0,55,0.00,,---,0.00,VWS V14.01,2013-01-14 08:39:00,
2013-01-14 03:44:00,18.7,5.6,29.03,NNW,338,0.0,0.0,56,0.00,,---,0.00,VWS V14.01,2013-01-14 08:44:00,
2013-01-14 03:49:00,18.7,5.2,29.03,North,350,0.0,0.0,55,0.00,,---,0.00,VWS V14.01,2013-01-14 08:49:00,
2013-01-14 03:54:00,18.7,4.8,29.03,NNE,15,0.0,0.0,54,0.00,,---,0.00,VWS V14.01,2013-01-14 08:54:00,
2013-01-14 03:59:00,18.5,4.2,29.03,WSW,250,0.0,0.0,53,0.00,,---,0.00,VWS V14.01,2013-01-14 08:59:00,
2013-01-14 04:04:00,18.5,4.2,29.03,North,1,0.0,0.0,53,0.00,,---,0.00,VWS V14.01,2013-01-14 09:04:00,
2013-01-14 04:09:00,18.5,4.2,29.03,North,353,0.0,0.0,53,0.00,,---,0.00,VWS V14.01,2013-01-14 09:09:00,
2013-01-14 04:14:00,18.5,4.6,29.03,North,357,0.0,0.0,54,0.00,,---,0.00,VWS V14.01,2013-01-14 09:14:00,
2013-01-14 04:19:00,18.3,4.5,29.06,North,353,0.0,0.0,54,0.00,,---,0.00,VWS V14.01,2013-01-14 09:19:00,
2013-01-14 04:24:00,18.3,4.5,29.06,NW,318,0.0,0.0,54,0.00,,---,0.00,VWS V14.01,2013-01-14 09:24:00,
2013-01-14 04:29:00,18.3,4.5,29.06,NNW,345,0.0,0.0,54,0.00,,---,0.00,VWS V14.01,2013-01-14 09:29:00,
2013-01-14 04:34:00,18.1,4.7,29.06,North,9,0.0,0.0,55,0.00,,---,0.00,VWS V14.01,2013-01-14 09:34:00,
2013-01-14 04:39:00,18.1,4.7,29.06,NW,306,0.0,0.0,55,0.00,,---,0.00,VWS V14.01,2013-01-14 09:39:00,
2013-01-14 04:44:00,18.1,5.1,29.06,NW,319,0.0,0.0,56,0.00,,---,0.00,VWS V14.01,2013-01-14 09:44:00,
2013-01-14 04:49:00,18.0,4.9,29.06,NNW,332,0.0,0.0,56,0.00,,---,0.00,VWS V14.01,2013-01-14 09:49:00,
2013-01-14 04:54:00,18.0,5.3,29.06,North,2,0.0,0.0,57,0.00,,---,0.00,VWS V14.01,2013-01-14 09:54:00,
2013-01-14 04:59:00,17.8,5.1,29.06,NNW,331,0.0,0.0,57,0.00,,---,0.00,VWS V14.01,2013-01-14 09:59:00,
2013-01-14 05:04:00,17.8,5.1,29.09,NW,316,0.0,0.0,57,0.00,,---,0.00,VWS V14.01,2013-01-14 10:04:00,
2013-01-14 05:09:00,17.8,5.1,29.09,NW,325,0.0,0.0,57,0.00,,---,0.00,VWS V14.01,2013-01-14 10:09:00,
2013-01-14 05:14:00,17.8,5.5,29.09,NW,312,0.0,0.0,58,0.00,,---,0.00,VWS V14.01,2013-01-14 10:14:00,
2013-01-14 05:19:00,17.8,5.5,29.09,WNW,302,0.0,0.0,58,0.00,,---,0.00,VWS V14.01,2013-01-14 10:19:00,
2013-01-14 05:24:00,17.8,5.1,29.09,WNW,298,0.0,0.0,57,0.00,,---,0.00,VWS V14.01,2013-01-14 10:24:00,
2013-01-14 05:29:00,17.8,5.1,29.09,WNW,288,0.0,0.0,57,0.00,,---,0.00,VWS V14.01,2013-01-14 10:29:00,
2013-01-14 05:34:00,17.8,5.1,29.09,WNW,285,0.0,0.0,57,0.00,,---,0.00,VWS V14.01,2013-01-14 10:34:00,
2013-01-14 05:39:00,18.0,5.3,29.09,West,271,0.0,0.0,57,0.00,,---,0.00,VWS V14.01,2013-01-14 10:39:00,
2013-01-14 05:44:00,18.0,5.3,29.09,WNW,284,0.0,0.0,57,0.00,,---,0.00,VWS V14.01,2013-01-14 10:44:00,
2013-01-14 05:49:00,18.0,5.3,29.09,WNW,294,0.0,0.0,57,0.00,,---,0.00,VWS V14.01,2013-01-14 10:49:00,
2013-01-14 05:54:00,17.8,5.1,29.09,WNW,298,0.0,0.0,57,0.00,,---,0.00,VWS V14.01,2013-01-14 10:54:00,
2013-01-14 05:59:00,17.8,5.1,29.09,West,275,0.0,0.0,57,0.00,,---,0.00,VWS V14.01,2013-01-14 10:59:00,
2013-01-14 06:04:00,17.8,5.5,29.09,WNW,286,0.0,0.0,58,0.00,,---,0.00,VWS V14.01,2013-01-14 11:04:00,
2013-01-14 06:09:00,17.8,5.5,29.09,NW,322,0.0,0.0,58,0.00,,---,0.00,VWS V14.01,2013-01-14 11:09:00,
2013-01-14 06:14:00,17.8,5.5,29.09,NNW,343,0.0,0.0,58,0.00,,---,0.00,VWS V14.01,2013-01-14 11:14:00,
2013-01-14 06:19:00,17.8,5.5,29.12,NW,320,0.0,0.0,58,0.00,,---,0.00,VWS V14.01,2013-01-14 11:19:00,
2013-01-14 06:24:00,17.8,5.1,29.12,NW,312,0.0,0.0,57,0.00,,---,0.00,VWS V14.01,2013-01-14 11:24:00,
2013-01-14 06:29:00,17.8,5.5,29.12,North,1,0.0,0.0,58,0.00,,---,0.00,VWS V14.01,2013-01-14 11:29:00,
2013-01-14 06:34:00,17.6,5.3,29.12,North,5,0.0,0.0,58,0.00,,---,0.00,VWS V14.01,2013-01-14 11:34:00,
2013-01-14 06:39:00,17.6,5.3,29.12,North,350,0.0,0.0,58,0.00,,---,0.00,VWS V14.01,2013-01-14 11:39:00,
2013-01-14 06:44:00,17.6,5.3,29.12,NW,323,0.0,0.0,58,0.00,,---,0.00,VWS V14.01,2013-01-14 11:44:00,
2013-01-14 06:49:00,17.6,5.0,29.15,NNW,348,0.0,0.0,57,0.00,,---,0.00,VWS V14.01,2013-01-14 11:49:00,
2013-01-14 06:54:00,17.2,4.6,29.15,NNW,345,0.0,0.0,57,0.00,,---,0.00,VWS V14.01,2013-01-14 11:54:00,
2013-01-14 06:59:00,17.1,4.5,29.15,NNW,338,0.0,0.0,57,0.00,,---,0.00,VWS V14.01,2013-01-14 11:59:00,
2013-01-14 07:04:00,17.1,4.5,29.15,North,2,0.0,0.0,57,0.00,,---,0.00,VWS V14.01,2013-01-14 12:04:00,
2013-01-14 07:09:00,17.1,4.5,29.15,North,353,0.0,0.0,57,0.00,,---,0.00,VWS V14.01,2013-01-14 12:09:00,
2013-01-14 07:14:00,17.1,4.5,29.15,NNW,339,0.0,0.0,57,0.00,,---,0.00,VWS V14.01,2013-01-14 12:14:00,
2013-01-14 07:19:00,17.1,4.5,29.15,North,353,0.0,0.0,57,0.00,,---,0.00,VWS V14.01,2013-01-14 12:19:00,
2013-01-14 07:24:00,17.1,4.5,29.15,North,1,0.0,0.0,57,0.00,,---,0.00,VWS V14.01,2013-01-14 12:24:00,
2013-01-14 07:29:00,17.1,4.5,29.15,NNW,342,0.0,0.0,57,0.00,,---,0.00,VWS V14.01,2013-01-14 12:29:00,
2013-01-14 07:34:00,17.1,4.5,29.15,North,353,0.0,0.0,57,0.00,,---,0.00,VWS V14.01,2013-01-14 12:34:00,
2013-01-14 07:39:00,17.1,4.5,29.15,North,353,0.0,0.0,57,0.00,,---,0.00,VWS V14.01,2013-01-14 12:39:00,
2013-01-14 07:44:00,16.7,3.3,29.15,North,357,0.0,0.0,55,0.00,,---,0.00,VWS V14.01,2013-01-14 12:44:00,
2013-01-14 07:49:00,16.7,3.3,29.15,North,349,0.0,0.0,55,0.00,,---,0.00,VWS V14.01,2013-01-14 12:49:00,
2013-01-14 07:54:00,16.7,3.3,29.15,NNW,342,0.0,0.0,55,0.00,,---,0.00,VWS V14.01,2013-01-14 12:54:00,
2013-01-14 07:59:00,16.7,3.3,29.15,North,350,0.0,0.0,55,0.00,,---,0.00,VWS V14.01,2013-01-14 12:59:00,
2013-01-14 08:04:00,16.7,3.3,29.18,NNW,346,0.0,0.0,55,0.00,,---,0.00,VWS V14.01,2013-01-14 13:04:00,
2013-01-14 08:10:00,16.7,3.3,29.18,North,1,0.0,0.0,55,0.00,,---,0.00,VWS V14.01,2013-01-14 13:10:00,
2013-01-14 08:15:00,16.9,3.9,29.18,North,1,0.0,0.0,56,0.00,,---,0.00,VWS V14.01,2013-01-14 13:15:00,
2013-01-14 08:20:00,16.9,3.9,29.18,North,1,0.0,0.0,56,0.00,,---,0.00,VWS V14.01,2013-01-14 13:20:00,
2013-01-14 08:25:00,16.9,3.9,29.18,North,350,0.0,0.0,56,0.00,,---,0.00,VWS V14.01,2013-01-14 13:25:00,
2013-01-14 08:30:00,16.9,3.9,29.18,North,353,0.0,0.0,56,0.00,,---,0.00,VWS V14.01,2013-01-14 13:30:00,
2013-01-14 08:35:00,16.9,3.9,29.21,North,2,0.0,0.0,56,0.00,,---,0.00,VWS V14.01,2013-01-14 13:35:00,
2013-01-14 08:40:00,16.9,3.9,29.21,NNW,338,0.0,0.0,56,0.00,,---,0.00,VWS V14.01,2013-01-14 13:40:00,
2013-01-14 08:45:00,16.9,3.9,29.21,NNW,345,0.0,0.0,56,0.00,,---,0.00,VWS V14.01,2013-01-14 13:45:00,
2013-01-14 08:50:00,16.9,3.9,29.21,North,349,0.0,0.0,56,0.00,,---,0.00,VWS V14.01,2013-01-14 13:50:00,
2013-01-14 08:55:00,16.9,3.9,29.21,NNW,345,0.0,0.0,56,0.00,,---,0.00,VWS V14.01,2013-01-14 13:55:00,
2013-01-14 09:00:00,16.9,3.9,29.21,North,3,0.0,0.0,56,0.00,,---,0.00,VWS V14.01,2013-01-14 14:00:00,
2013-01-14 09:05:00,16.9,3.9,29.21,NNW,341,0.0,0.0,56,0.00,,---,0.00,VWS V14.01,2013-01-14 14:05:00,
2013-01-14 09:10:00,16.9,3.9,29.21,North,1,0.0,0.0,56,0.00,,---,0.00,VWS V14.01,2013-01-14 14:10:00,
2013-01-14 09:15:00,16.9,3.9,29.21,North,353,0.0,0.0,56,0.00,,---,0.00,VWS V14.01,2013-01-14 14:15:00,
2013-01-14 09:20:00,16.9,3.9,29.21,North,2,0.0,0.0,56,0.00,,---,0.00,VWS V14.01,2013-01-14 14:20:00,
2013-01-14 09:25:00,16.9,3.9,29.21,North,0,0.0,0.0,56,0.00,,---,0.00,VWS V14.01,2013-01-14 14:25:00,
2013-01-14 09:30:00,16.9,3.9,29.21,North,350,0.0,0.0,56,0.00,,---,0.00,VWS V14.01,2013-01-14 14:30:00,
2013-01-14 09:35:00,16.9,3.9,29.23,NNW,344,0.0,0.0,56,0.00,,---,0.00,VWS V14.01,2013-01-14 14:35:00,
2013-01-14 09:40:00,16.9,3.9,29.23,North,1,0.0,0.0,56,0.00,,---,0.00,VWS V14.01,2013-01-14 14:40:00,
2013-01-14 09:45:00,16.9,3.9,29.23,North,0,0.0,0.0,56,0.00,,---,0.00,VWS V14.01,2013-01-14 14:45:00,
2013-01-14 09:50:00,16.9,3.9,29.23,North,350,0.0,0.0,56,0.00,,---,0.00,VWS V14.01,2013-01-14 14:50:00,
2013-01-14 09:55:00,16.9,3.9,29.23,North,357,0.0,0.0,56,0.00,,---,0.00,VWS V14.01,2013-01-14 14:55:00,
2013-01-14 10:00:00,16.9,3.9,29.23,NNW,345,0.0,0.0,56,0.00,,---,0.00,VWS V14.01,2013-01-14 15:00:00,
2013-01-14 10:05:00,16.9,3.9,29.23,NNW,346,0.0,0.0,56,0.00,,---,0.00,VWS V14.01,2013-01-14 15:05:00,
2013-01-14 10:10:00,16.9,3.9,29.23,North,2,0.0,0.0,56,0.00,,---,0.00,VWS V14.01,2013-01-14 15:10:00,
2013-01-14 10:15:00,16.9,3.9,29.23,North,357,0.0,0.0,56,0.00,,---,0.00,VWS V14.01,2013-01-14 15:15:00,
2013-01-14 10:20:00,16.9,3.9,29.21,North,3,0.0,0.0,56,0.00,,---,0.00,VWS V14.01,2013-01-14 15:20:00,
2013-01-14 10:25:00,16.9,3.9,29.21,NNW,336,0.0,0.0,56,0.00,,---,0.00,VWS V14.01,2013-01-14 15:25:00,
2013-01-14 10:30:00,16.9,3.9,29.21,NNW,331,0.0,0.0,56,0.00,,---,0.00,VWS V14.01,2013-01-14 15:30:00,
2013-01-14 10:35:00,16.9,3.9,29.21,NNW,346,0.0,0.0,56,0.00,,---,0.00,VWS V14.01,2013-01-14 15:35:00,
2013-01-14 10:40:00,16.9,3.9,29.21,NNW,345,0.0,0.0,56,0.00,,---,0.00,VWS V14.01,2013-01-14 15:40:00,
2013-01-14 10:45:00,16.9,3.9,29.21,North,5,0.0,0.0,56,0.00,,---,0.00,VWS V14.01,2013-01-14 15:45:00,
2013-01-14 10:50:00,16.9,3.9,29.21,North,2,0.0,0.0,56,0.00,,---,0.00,VWS V14.01,2013-01-14 15:50:00,
2013-01-14 10:55:00,16.9,3.9,29.21,North,4,0.0,0.0,56,0.00,,---,0.00,VWS V14.01,2013-01-14 15:55:00,
2013-01-14 11:00:00,16.9,3.9,29.21,North,350,0.0,0.0,56,0.00,,---,0.00,VWS V14.01,2013-01-14 16:00:00,
2013-01-14 11:05:00,16.9,3.9,29.21,North,350,0.0,0.0,56,0.00,,---,0.00,VWS V14.01,2013-01-14 16:05:00,
2013-01-14 11:10:00,16.9,3.9,29.21,North,357,0.0,0.0,56,0.00,,---,0.00,VWS V14.01,2013-01-14 16:10:00,
2013-01-14 11:15:00,16.9,3.9,29.21,North,357,0.0,0.0,56,0.00,,---,0.00,VWS V14.01,2013-01-14 16:15:00,
2013-01-14 11:20:00,16.9,3.9,29.21,NNW,329,0.0,0.0,56,0.00,,---,0.00,VWS V14.01,2013-01-14 16:20:00,
2013-01-14 11:25:00,16.9,3.9,29.21,North,350,0.0,0.0,56,0.00,,---,0.00,VWS V14.01,2013-01-14 16:25:00,
2013-01-14 11:30:00,16.9,3.9,29.21,North,349,0.0,0.0,56,0.00,,---,0.00,VWS V14.01,2013-01-14 16:30:00,
2013-01-14 11:35:00,16.9,3.9,29.21,North,1,0.0,0.0,56,0.00,,---,0.00,VWS V14.01,2013-01-14 16:35:00,
2013-01-14 11:40:00,16.9,3.9,29.21,NW,324,0.0,0.0,56,0.00,,---,0.00,VWS V14.01,2013-01-14 16:40:00,
2013-01-14 11:45:00,16.9,3.9,29.21,North,357,0.0,0.0,56,0.00,,---,0.00,VWS V14.01,2013-01-14 16:45:00,
2013-01-14 11:50:00,16.9,3.9,29.21,NNW,346,0.0,0.0,56,0.00,,---,0.00,VWS V14.01,2013-01-14 16:50:00,
2013-01-14 11:55:00,16.9,3.9,29.21,WNW,303,0.0,0.0,56,0.00,,---,0.00,VWS V14.01,2013-01-14 16:55:00,
2013-01-14 12:00:00,16.9,3.9,29.21,North,3,0.0,0.0,56,0.00,,---,0.00,VWS V14.01,2013-01-14 17:00:00,
2013-01-14 12:05:00,16.9,3.9,29.18,NNE,19,0.0,0.0,56,0.00,,---,0.00,VWS V14.01,2013-01-14 17:05:00,
2013-01-14 12:10:00,16.9,3.9,29.18,North,353,0.0,0.0,56,0.00,,---,0.00,VWS V14.01,2013-01-14 17:10:00,
2013-01-14 12:15:00,16.9,3.9,29.18,NNW,340,0.0,0.0,56,0.00,,---,0.00,VWS V14.01,2013-01-14 17:15:00,
2013-01-14 12:20:00,16.9,3.9,29.18,North,1,0.0,0.0,56,0.00,,---,0.00,VWS V14.01,2013-01-14 17:20:00,
2013-01-14 12:25:00,16.9,3.9,29.18,North,11,0.0,0.0,56,0.00,,---,0.00,VWS V14.01,2013-01-14 17:25:00,
2013-01-14 12:30:00,16.9,3.9,29.18,North,8,0.0,0.0,56,0.00,,---,0.00,VWS V14.01,2013-01-14 17:30:00,
2013-01-14 12:35:00,16.9,3.9,29.18,North,1,0.0,0.0,56,0.00,,---,0.00,VWS V14.01,2013-01-14 17:35:00,
2013-01-14 12:40:00,16.9,3.9,29.18,North,7,0.0,0.0,56,0.00,,---,0.00,VWS V14.01,2013-01-14 17:40:00,
2013-01-14 12:45:00,16.9,3.9,29.18,NNE,28,0.0,0.0,56,0.00,,---,0.00,VWS V14.01,2013-01-14 17:45:00,
2013-01-14 12:50:00,16.9,3.9,29.18,North,3,0.0,0.0,56,0.00,,---,0.00,VWS V14.01,2013-01-14 17:50:00,
2013-01-14 12:55:00,16.9,3.9,29.18,North,1,0.0,0.0,56,0.00,,---,0.00,VWS V14.01,2013-01-14 17:55:00,
2013-01-14 13:00:00,16.9,3.9,29.18,North,357,0.0,0.0,56,0.00,,---,0.00,VWS V14.01,2013-01-14 18:00:00,
2013-01-14 13:05:00,16.9,3.9,29.18,NNE,14,0.0,0.0,56,0.00,,---,0.00,VWS V14.01,2013-01-14 18:05:00,
2013-01-14 13:10:00,16.9,3.9,29.18,North,357,0.0,0.0,56,0.00,,---,0.00,VWS V14.01,2013-01-14 18:10:00,
2013-01-14 13:15:00,16.9,3.9,29.18,North,0,0.0,0.0,56,0.00,,---,0.00,VWS V14.01,2013-01-14 18:15:00,
2013-01-14 13:20:00,16.9,3.9,29.18,NW,317,0.0,0.0,56,0.00,,---,0.00,VWS V14.01,2013-01-14 18:20:00,
2013-01-14 13:25:00,16.9,3.9,29.18,North,357,0.0,0.0,56,0.00,,---,0.00,VWS V14.01,2013-01-14 18:25:00,
2013-01-14 13:30:00,16.9,3.9,29.18,NW,309,0.0,0.0,56,0.00,,---,0.00,VWS V14.01,2013-01-14 18:30:00,
2013-01-14 13:35:00,16.9,3.9,29.18,NNW,339,0.0,0.0,56,0.00,,---,0.00,VWS V14.01,2013-01-14 18:35:00,
2013-01-14 13:40:00,16.9,3.9,29.18,NNE,16,0.0,0.0,56,0.00,,---,0.00,VWS V14.01,2013-01-14 18:40:00,
2013-01-14 13:45:00,16.9,3.9,29.18,North,5,0.0,0.0,56,0.00,,---,0.00,VWS V14.01,2013-01-14 18:45:00,
2013-01-14 13:50:00,16.9,3.9,29.18,North,2,0.0,0.0,56,0.00,,---,0.00,VWS V14.01,2013-01-14 18:50:00,
2013-01-14 13:55:00,16.9,3.9,29.18,NNW,342,0.0,0.0,56,0.00,,---,0.00,VWS V14.01,2013-01-14 18:55:00,
2013-01-14 14:00:00,16.9,3.9,29.18,NNE,14,0.0,0.0,56,0.00,,---,0.00,VWS V14.01,2013-01-14 19:00:00,
2013-01-14 14:05:00,16.9,3.9,29.18,North,353,0.0,0.0,56,0.00,,---,0.00,VWS V14.01,2013-01-14 19:05:00,
2013-01-14 14:10:00,16.9,3.9,29.18,North,1,0.0,0.0,56,0.00,,---,0.00,VWS V14.01,2013-01-14 19:10:00,
2013-01-14 14:15:00,16.9,3.9,29.18,North,350,0.0,0.0,56,0.00,,---,0.00,VWS V14.01,2013-01-14 19:15:00,
2013-01-14 14:20:00,16.9,3.9,29.18,North,1,0.0,0.0,56,0.00,,---,0.00,VWS V14.01,2013-01-14 19:20:00,
2013-01-14 14:25:00,16.9,3.9,29.18,North,349,0.0,0.0,56,0.00,,---,0.00,VWS V14.01,2013-01-14 19:25:00,
2013-01-14 14:30:00,16.9,3.9,29.18,NNE,12,0.0,0.0,56,0.00,,---,0.00,VWS V14.01,2013-01-14 19:30:00,
2013-01-14 14:35:00,16.9,3.9,29.21,North,350,0.0,0.0,56,0.00,,---,0.00,VWS V14.01,2013-01-14 19:35:00,
2013-01-14 14:40:00,16.9,3.9,29.21,West,266,0.0,0.0,56,0.00,,---,0.00,VWS V14.01,2013-01-14 19:40:00,
2013-01-14 14:45:00,16.9,3.9,29.21,NNW,346,0.0,0.0,56,0.00,,---,0.00,VWS V14.01,2013-01-14 19:45:00,
2013-01-14 14:50:00,16.9,3.9,29.21,NNW,340,0.0,0.0,56,0.00,,---,0.00,VWS V14.01,2013-01-14 19:50:00,
2013-01-14 14:55:00,16.9,3.9,29.21,NNW,337,0.0,0.0,56,0.00,,---,0.00,VWS V14.01,2013-01-14 19:55:00,
2013-01-14 15:00:00,16.9,3.9,29.21,SSW,200,0.0,0.0,56,0.00,,---,0.00,VWS V14.01,2013-01-14 20:00:00,
2013-01-14 15:05:00,16.9,3.9,29.21,NW,320,0.0,0.0,56,0.00,,---,0.00,VWS V14.01,2013-01-14 20:05:00,
2013-01-14 15:10:00,16.9,3.9,29.21,West,271,0.0,0.0,56,0.00,,---,0.00,VWS V14.01,2013-01-14 20:10:00,
2013-01-14 15:15:00,16.9,3.9,29.21,WNW,297,0.0,0.0,56,0.00,,---,0.00,VWS V14.01,2013-01-14 20:15:00,
2013-01-14 15:20:00,16.9,3.9,29.23,WSW,258,0.0,0.0,56,0.00,,---,0.00,VWS V14.01,2013-01-14 20:20:00,
2013-01-14 15:26:00,16.9,3.9,29.23,West,276,0.0,0.0,56,0.00,,---,0.00,VWS V14.01,2013-01-14 20:26:00,
2013-01-14 15:31:00,16.9,3.9,29.23,WSW,254,0.0,0.0,56,0.00,,---,0.00,VWS V14.01,2013-01-14 20:31:00,
2013-01-14 15:36:00,16.9,3.9,29.23,West,266,0.0,0.0,56,0.00,,---,0.00,VWS V14.01,2013-01-14 20:36:00,
2013-01-14 15:41:00,16.9,3.9,29.23,West,276,0.0,0.0,56,0.00,,---,0.00,VWS V14.01,2013-01-14 20:41:00,
2013-01-14 15:46:00,16.9,3.9,29.23,NNE,27,0.0,0.0,56,0.00,,---,0.00,VWS V14.01,2013-01-14 20:46:00,
2013-01-14 15:51:00,23.2,4.5,29.23,North,357,0.0,0.0,44,0.00,,---,0.00,VWS V14.01,2013-01-14 20:51:00,
2013-01-14 15:56:00,23.2,4.5,29.23,WNW,293,0.0,0.0,44,0.00,,---,0.00,VWS V14.01,2013-01-14 20:56:00,
2013-01-14 16:01:00,22.8,4.7,29.23,WNW,301,0.0,0.0,45,0.00,,---,0.00,VWS V14.01,2013-01-14 21:01:00,
2013-01-14 16:06:00,22.8,4.7,29.23,North,0,0.0,0.0,45,0.00,,---,0.00,VWS V14.01,2013-01-14 21:06:00,
2013-01-14 16:11:00,22.8,4.7,29.23,North,353,0.0,0.0,45,0.00,,---,0.00,VWS V14.01,2013-01-14 21:11:00,
2013-01-14 16:16:00,22.8,4.7,29.23,NNW,334,0.0,0.0,45,0.00,,---,0.00,VWS V14.01,2013-01-14 21:16:00,
2013-01-14 16:21:00,22.8,4.7,29.23,North,6,0.0,0.0,45,0.00,,---,0.00,VWS V14.01,2013-01-14 21:21:00,
2013-01-14 16:26:00,22.8,4.7,29.23,WNW,294,0.0,0.0,45,0.00,,---,0.00,VWS V14.01,2013-01-14 21:26:00,
2013-01-14 16:31:00,22.1,4.5,29.23,North,357,0.0,0.0,46,0.00,,---,0.00,VWS V14.01,2013-01-14 21:31:00,
2013-01-14 16:36:00,22.1,4.5,29.23,NNW,345,0.0,0.0,46,0.00,,---,0.00,VWS V14.01,2013-01-14 21:36:00,
2013-01-14 16:41:00,22.1,4.5,29.23,North,6,0.0,0.0,46,0.00,,---,0.00,VWS V14.01,2013-01-14 21:41:00,
2013-01-14 16:46:00,22.1,4.5,29.23,WNW,293,0.0,0.0,46,0.00,,---,0.00,VWS V14.01,2013-01-14 21:46:00,
2013-01-14 16:51:00,21.6,3.5,29.23,WNW,293,0.0,0.0,45,0.00,,---,0.00,VWS V14.01,2013-01-14 21:51:00,
2013-01-14 16:56:00,21.4,3.3,29.23,WNW,301,0.0,0.0,45,0.00,,---,0.00,VWS V14.01,2013-01-14 21:56:00,
2013-01-14 17:01:00,21.6,4.0,29.23,West,259,0.0,0.0,46,0.00,,---,0.00,VWS V14.01,2013-01-14 22:01:00,
2013-01-14 17:06:00,21.6,3.5,29.23,NW,305,0.0,0.0,45,0.00,,---,0.00,VWS V14.01,2013-01-14 22:06:00,
2013-01-14 17:11:00,21.2,3.7,29.23,West,271,0.0,0.0,46,0.00,,---,0.00,VWS V14.01,2013-01-14 22:11:00,
2013-01-14 17:16:00,20.8,3.3,29.23,West,271,0.0,0.0,46,0.00,,---,0.00,VWS V14.01,2013-01-14 22:16:00,
2013-01-14 17:21:00,20.8,3.3,29.23,West,272,0.0,0.0,46,0.00,,---,0.00,VWS V14.01,2013-01-14 22:21:00,
2013-01-14 17:26:00,20.3,2.8,29.23,West,270,0.0,0.0,46,0.00,,---,0.00,VWS V14.01,2013-01-14 22:26:00,
2013-01-14 17:31:00,19.9,3.0,29.23,West,270,0.0,0.0,47,0.00,,---,0.00,VWS V14.01,2013-01-14 22:31:00,
2013-01-14 17:36:00,19.8,2.8,29.23,West,272,0.0,0.0,47,0.00,,---,0.00,VWS V14.01,2013-01-14 22:36:00,
2013-01-14 17:41:00,19.0,2.6,29.23,West,271,0.0,0.0,48,0.00,,---,0.00,VWS V14.01,2013-01-14 22:41:00,
2013-01-14 17:46:00,18.5,2.5,29.23,West,270,0.0,0.0,49,0.00,,---,0.00,VWS V14.01,2013-01-14 22:46:00,
2013-01-14 17:51:00,18.1,2.6,29.23,West,272,0.0,0.0,50,0.00,,---,0.00,VWS V14.01,2013-01-14 22:51:00,
2013-01-14 17:56:00,18.3,2.8,29.23,West,270,0.0,0.0,50,0.00,,---,0.00,VWS V14.01,2013-01-14 22:56:00,
2013-01-14 18:01:00,18.3,2.8,29.23,West,271,0.0,0.0,50,0.00,,---,0.00,VWS V14.01,2013-01-14 23:01:00,
2013-01-14 18:06:00,18.0,2.9,29.23,West,269,0.0,0.0,51,0.00,,---,0.00,VWS V14.01,2013-01-14 23:06:00,
2013-01-14 18:11:00,17.4,2.8,29.23,West,269,0.0,0.0,52,0.00,,---,0.00,VWS V14.01,2013-01-14 23:11:00,
2013-01-14 18:16:00,17.1,2.9,29.23,West,269,0.0,0.0,53,0.00,,---,0.00,VWS V14.01,2013-01-14 23:16:00,
2013-01-14 18:21:00,16.7,2.5,29.23,West,270,0.0,0.0,53,0.00,,---,0.00,VWS V14.01,2013-01-14 23:21:00,
2013-01-14 18:26:00,16.5,2.8,29.23,West,270,0.0,0.0,54,0.00,,---,0.00,VWS V14.01,2013-01-14 23:26:00,
2013-01-14 18:31:00,16.7,3.3,29.23,West,271,0.0,0.0,55,0.00,,---,0.00,VWS V14.01,2013-01-14 23:31:00,
2013-01-14 18:36:00,16.2,2.8,29.23,West,269,0.0,0.0,55,0.00,,---,0.00,VWS V14.01,2013-01-14 23:36:00,
2013-01-14 18:41:00,16.3,3.4,29.23,West,270,0.0,0.0,56,0.00,,---,0.00,VWS V14.01,2013-01-14 23:41:00,
2013-01-14 18:46:00,15.4,2.6,29.23,West,271,0.0,0.0,56,0.00,,---,0.00,VWS V14.01,2013-01-14 23:46:00,
2013-01-14 18:51:00,15.1,2.2,29.23,West,269,0.0,0.0,56,0.00,,---,0.00,VWS V14.01,2013-01-14 23:51:00,
2013-01-14 18:56:00,14.9,2.0,29.23,West,269,0.0,0.0,56,0.00,,---,0.00,VWS V14.01,2013-01-14 23:56:00,
2013-01-14 19:01:00,14.5,2.1,29.23,West,271,0.0,0.0,57,0.00,,---,0.00,VWS V14.01,2013-01-15 00:01:00,
2013-01-14 19:06:00,14.9,2.8,29.21,West,269,0.0,0.0,58,0.00,,---,0.00,VWS V14.01,2013-01-15 00:06:00,
2013-01-14 19:11:00,14.9,2.8,29.21,West,269,0.0,0.0,58,0.00,,---,0.00,VWS V14.01,2013-01-15 00:11:00,
2013-01-14 19:16:00,14.7,3.0,29.21,West,269,0.0,0.0,59,0.00,,---,0.00,VWS V14.01,2013-01-15 00:16:00,
2013-01-14 19:21:00,14.5,2.8,29.23,West,269,0.0,0.0,59,0.00,,---,0.00,VWS V14.01,2013-01-15 00:21:00,
2013-01-14 19:26:00,14.4,2.7,29.23,West,270,0.0,0.0,59,0.00,,---,0.00,VWS V14.01,2013-01-15 00:26:00,
2013-01-14 19:31:00,14.4,2.7,29.23,West,269,0.0,0.0,59,0.00,,---,0.00,VWS V14.01,2013-01-15 00:31:00,
2013-01-14 19:36:00,14.4,3.0,29.21,SW,214,0.0,0.0,60,0.00,,---,0.00,VWS V14.01,2013-01-15 00:36:00,
2013-01-14 19:41:00,14.4,3.0,29.21,SW,215,0.0,0.0,60,0.00,,---,0.00,VWS V14.01,2013-01-15 00:41:00,
2013-01-14 19:46:00,14.7,3.4,29.21,SW,219,0.0,0.0,60,0.00,,---,0.00,VWS V14.01,2013-01-15 00:46:00,
2013-01-14 19:51:00,15.1,4.1,29.21,SW,233,0.0,0.0,61,0.00,,---,0.00,VWS V14.01,2013-01-15 00:51:00,
2013-01-14 19:56:00,15.8,4.8,29.21,WSW,248,0.0,0.0,61,0.00,,---,0.00,VWS V14.01,2013-01-15 00:56:00,
2013-01-14 20:01:00,16.0,4.6,29.21,WSW,244,0.0,0.0,60,0.00,,---,0.00,VWS V14.01,2013-01-15 01:01:00,
2013-01-14 20:06:00,16.0,4.2,29.21,WSW,250,0.0,0.0,59,0.00,,---,0.00,VWS V14.01,2013-01-15 01:06:00,
2013-01-14 20:11:00,16.2,4.4,29.21,WSW,255,0.0,0.0,59,0.00,,---,0.00,VWS V14.01,2013-01-15 01:11:00,
2013-01-14 20:16:00,16.3,4.2,29.21,West,260,0.0,0.0,58,0.00,,---,0.00,VWS V14.01,2013-01-15 01:16:00,
2013-01-14 20:21:00,16.2,4.0,29.21,WSW,254,0.0,0.0,58,0.00,,---,0.00,VWS V14.01,2013-01-15 01:21:00,
2013-01-14 20:26:00,16.0,3.8,29.21,WSW,244,0.0,0.0,58,0.00,,---,0.00,VWS V14.01,2013-01-15 01:26:00,
2013-01-14 20:31:00,16.0,3.8,29.21,WSW,244,0.0,0.0,58,0.00,,---,0.00,VWS V14.01,2013-01-15 01:31:00,
2013-01-14 20:36:00,16.0,3.8,29.21,WSW,245,0.0,0.0,58,0.00,,---,0.00,VWS V14.01,2013-01-15 01:36:00,
2013-01-14 20:41:00,16.2,4.0,29.21,WSW,240,0.0,0.0,58,0.00,,---,0.00,VWS V14.01,2013-01-15 01:41:00,
2013-01-14 20:46:00,16.2,4.0,29.21,WSW,241,0.0,0.0,58,0.00,,---,0.00,VWS V14.01,2013-01-15 01:46:00,
2013-01-14 20:51:00,16.2,4.0,29.23,WSW,241,0.0,0.0,58,0.00,,---,0.00,VWS V14.01,2013-01-15 01:51:00,
2013-01-14 20:56:00,16.2,4.0,29.23,WSW,241,0.0,0.0,58,0.00,,---,0.00,VWS V14.01,2013-01-15 01:56:00,
2013-01-14 21:01:00,16.5,4.3,29.23,WSW,239,0.0,0.0,58,0.00,,---,0.00,VWS V14.01,2013-01-15 02:01:00,
2013-01-14 21:06:00,16.5,4.0,29.23,WSW,238,0.0,0.0,57,0.00,,---,0.00,VWS V14.01,2013-01-15 02:06:00,
2013-01-14 21:11:00,16.5,4.0,29.23,West,262,0.0,0.0,57,0.00,,---,0.00,VWS V14.01,2013-01-15 02:11:00,
2013-01-14 21:16:00,16.5,4.0,29.23,WSW,239,0.0,0.0,57,0.00,,---,0.00,VWS V14.01,2013-01-15 02:16:00,
2013-01-14 21:21:00,16.7,4.1,29.23,SW,234,0.0,0.0,57,0.00,,---,0.00,VWS V14.01,2013-01-15 02:21:00,
2013-01-14 21:26:00,16.9,4.3,29.23,SW,233,0.0,0.0,57,0.00,,---,0.00,VWS V14.01,2013-01-15 02:26:00,
2013-01-14 21:31:00,16.9,4.3,29.23,WSW,238,0.0,0.0,57,0.00,,---,0.00,VWS V14.01,2013-01-15 02:31:00,
2013-01-14 21:36:00,16.7,4.1,29.21,SW,236,0.0,0.0,57,0.00,,---,0.00,VWS V14.01,2013-01-15 02:36:00,
2013-01-14 21:41:00,16.7,4.1,29.21,SW,233,0.0,0.0,57,0.00,,---,0.00,VWS V14.01,2013-01-15 02:41:00,
2013-01-14 21:46:00,16.5,4.0,29.21,SW,231,0.0,0.0,57,0.00,,---,0.00,VWS V14.01,2013-01-15 02:46:00,
2013-01-14 21:51:00,16.7,4.1,29.21,SW,231,0.0,0.0,57,0.00,,---,0.00,VWS V14.01,2013-01-15 02:51:00,
2013-01-14 22:11:00,17.1,4.5,29.21,WSW,241,0.0,0.0,57,0.00,,---,0.00,VWS V14.01,2013-01-15 03:11:00,
2013-01-14 22:17:00,17.1,4.5,29.21,WSW,237,0.0,0.0,57,0.00,,---,0.00,VWS V14.01,2013-01-15 03:17:00,
2013-01-14 22:22:00,16.9,4.3,29.21,WSW,245,0.0,0.0,57,0.00,,---,0.00,VWS V14.01,2013-01-15 03:22:00,
2013-01-14 22:27:00,17.1,4.5,29.21,WSW,237,0.0,0.0,57,0.00,,---,0.00,VWS V14.01,2013-01-15 03:27:00,
2013-01-14 22:32:00,17.2,4.6,29.21,WSW,239,0.0,0.0,57,0.00,,---,0.00,VWS V14.01,2013-01-15 03:32:00,
2013-01-14 22:37:00,17.6,4.6,29.21,WSW,239,0.0,0.0,56,0.00,,---,0.00,VWS V14.01,2013-01-15 03:37:00,
2013-01-14 22:42:00,18.0,4.9,29.21,WSW,238,0.0,0.0,56,0.00,,---,0.00,VWS V14.01,2013-01-15 03:42:00,
2013-01-14 22:47:00,18.5,5.4,29.21,SW,234,0.0,0.0,56,0.00,,---,0.00,VWS V14.01,2013-01-15 03:47:00,
2013-01-14 22:52:00,18.9,5.8,29.21,SW,219,0.0,0.0,56,0.00,,---,0.00,VWS V14.01,2013-01-15 03:52:00,
2013-01-14 22:57:00,19.0,5.9,29.21,WSW,250,0.0,0.0,56,0.00,,---,0.00,VWS V14.01,2013-01-15 03:57:00,
2013-01-14 23:02:00,19.2,5.7,29.21,SW,230,0.0,0.0,55,0.00,,---,0.00,VWS V14.01,2013-01-15 04:02:00,
2013-01-14 23:07:00,19.4,6.3,29.21,SW,225,0.0,0.0,56,0.00,,---,0.00,VWS V14.01,2013-01-15 04:07:00,
2013-01-14 23:12:00,19.4,6.3,29.21,SW,229,0.0,0.0,56,0.00,,---,0.00,VWS V14.01,2013-01-15 04:12:00,
2013-01-14 23:17:00,19.2,6.1,29.21,SW,236,0.0,0.0,56,0.00,,---,0.00,VWS V14.01,2013-01-15 04:17:00,
2013-01-14 23:22:00,19.0,5.9,29.21,SW,227,0.0,0.0,56,0.00,,---,0.00,VWS V14.01,2013-01-15 04:22:00,
2013-01-14 23:27:00,19.2,6.1,29.21,SW,236,0.0,0.0,56,0.00,,---,0.00,VWS V14.01,2013-01-15 04:27:00,
2013-01-14 23:32:00,19.2,6.1,29.21,SW,228,0.0,0.0,56,0.00,,---,0.00,VWS V14.01,2013-01-15 04:32:00,
2013-01-14 23:37:00,19.4,6.7,29.21,SW,217,0.0,0.0,57,0.00,,---,0.00,VWS V14.01,2013-01-15 04:37:00,
2013-01-14 23:42:00,19.4,6.3,29.21,SW,230,0.0,0.0,56,0.00,,---,0.00,VWS V14.01,2013-01-15 04:42:00,
2013-01-14 23:47:00,19.6,6.1,29.21,WSW,244,0.0,0.0,55,0.00,,---,0.00,VWS V14.01,2013-01-15 04:47:00,
2013-01-14 23:52:00,19.8,5.8,29.21,WSW,247,0.0,0.0,54,0.00,,---,0.00,VWS V14.01,2013-01-15 04:52:00,
2013-01-14 23:57:00,19.9,6.0,29.21,WSW,247,0.0,0.0,54,0.00,,---,0.00,VWS V14.01,2013-01-15 04:57:00,